Flag Weather past 2 weeks in Ras al-Khaimah, Ras al-Khaimah, United Arab Emirates

Now
84 °F

Passing clouds.


Feels Like: 83 °F
Forecast: 65 / 76 °F
Wind: 13 mph from Northwest

Location: Ras Al Khaimah International Airport

Current Time: Nov 29, 2014 at 1:00:32 PM

Latest Report: Nov 29, 2014 at 12:00 PM


Visibility: N/A

Pressure: 29.98 "Hg

Humidity: 40%

Dew point: 57 °F

Location of Ras al-KhaimahLocation

Historic Weather in Ras al-Khaimah — Graph

°F

Ras al-Khaimah temperature yesterday

Maximum temperature yesterday: 84 °F (at 12:00 PM)
Minimum temperature yesterday: 66 °F (at 12:00 AM)
Average temperature yesterday: 75 °F

Past Weeks' High & Low Weather Summary

 TemperatureHumidityPressure
High90 °F (Nov 24, 1:00 PM)100% (Nov 15, 4:00 AM)30.12 "Hg (Nov 15, 4:00 AM)
Low57 °F (Nov 15, 4:00 AM)21% (Nov 15, 12:00 PM)29.89 "Hg (Nov 23, 2:00 PM)
Average74 °F66%30.00 "Hg
* Reported Nov 14 12:00 Noon — Nov 29 12:00 Noon, Ras al-Khaimah, Weather by CustomWeather, © 2014

Note: Actual official high and low records may vary slightly from our data, if they occured in-between our weather recording intervals... More about our weather records

Advertising

Ras al-Khaimah weather history for previous 24 hours

 ConditionsComfort  
Time TempWeatherWind HumidityBarometerVisibility
12:00 PM
Nov 29
84 °FPassing clouds.13 mph40%29.98 "HgN/A
11:00 AM82 °FScattered clouds.12 mph48%30.01 "HgN/A
10:00 AM81 °FScattered clouds.6 mph58%30.04 "HgN/A
9:00 AM75 °FScattered clouds.6 mph69%30.04 "HgN/A
8:00 AM70 °FPassing clouds.6 mph78%30.01 "HgN/A
7:00 AM68 °FSunny.6 mph78%30.01 "Hg10 mi
5:00 AM68 °FClear.3 mph78%29.98 "Hg10 mi
4:00 AM70 °FClear.7 mph73%29.98 "Hg10 mi
3:00 AM70 °FClear.6 mph78%29.98 "Hg10 mi
2:00 AM70 °FClear.5 mph78%29.98 "Hg10 mi
1:00 AM70 °FClear.2 mph78%29.98 "Hg10 mi
12:00 AM70 °FClear.3 mph73%29.98 "Hg10 mi
11:00 PM
Nov 28
72 °FClear.2 mph73%30.01 "Hg10 mi
10:00 PM73 °FClear.5 mph69%30.01 "Hg10 mi
9:00 PM75 °FClear.No wind65%29.98 "Hg10 mi
8:00 PM77 °FClear.2 mph61%29.98 "Hg10 mi
7:00 PM77 °FClear.No wind61%29.98 "Hg10 mi
6:00 PM79 °FClear.6 mph58%29.95 "Hg10 mi
5:00 PM81 °FSunny.8 mph54%29.92 "Hg10 mi
4:00 PM84 °FPassing clouds.10 mph45%29.92 "HgN/A
3:00 PM84 °FPassing clouds.12 mph48%29.92 "HgN/A
2:00 PM84 °FPassing clouds.13 mph48%29.92 "HgN/A
1:00 PM84 °FPassing clouds.12 mph51%29.95 "HgN/A
Weather by CustomWeather, © 2014

See weather overviewHow to use our weather pages